Montauk, NY

10:55 AM EDT on October 19, 2017 (GMT -0400)
Montauk

Weather History for KMTP - January, 2013

Change the Weather History Date:

Sunday, January 6, 2013

  Actual Average (KHTO) Record (KHTO)
Temperature  
Mean Temperature 38 °F -  
Max Temperature 43 °F 38 °F 41 °F (2016)
Min Temperature 32 °F 22 °F 21 °F (2015)
Degree Days  
Heating Degree Days 28    
Moisture  
Dew Point 31 °F    
Average Humidity 78    
Maximum Humidity 86    
Minimum Humidity 67    
Precipitation  
Precipitation 0.01 in - - ()
Sea Level Pressure  
Sea Level Pressure 30.07 in    
Wind  
Wind Speed 4 mph (WSW)    
Max Wind Speed 9 mph    
Max Gust Speed 16 mph    
Averages and records for this station are not official NWS values.
T = Trace of Precipitation, MM = Missing Value Source: NWS Daily Summary

Daily Weather History Graph

Daily Weather History Graph

Search for Another Location

Airport or City:

Trip Planner

Search our weather history database for the weather conditions in past years. The results will help you decide how hot, cold, wet, or windy it might be!

Date:

Astronomy

Jan. 06, 2013 Rise Set
Actual Time 7:12 AM EST 4:34 PM EST
Civil Twilight 6:42 AM EST 5:05 PM EST
Nautical Twilight 6:07 AM EST 5:39 PM EST
Astronomical Twilight 5:34 AM EST 6:13 PM EST
Moon 1:22 AM EST (1/6) 12:01 PM EST (1/6)
Length of Visible Light 10h 23m
Length of Day
9h 21m
Waning Crescent, 33% of the Moon is Illuminated
Jan 6
Waning Crescent
Jan 11
New
Jan 18
First Quarter
Jan 26
Full
Feb 3
Last Quarter

Hourly Weather History & Observations

Time (EST) Temp. Windchill Dew Point Humidity Pressure Visibility Wind Dir Wind Speed Gust Speed Precip Events Conditions
1:54 AM 32.0 °F - 27.0 °F 82% 30.21 in - Calm Calm - N/A   Unknown
2:54 AM 33.1 °F - 28.0 °F 82% 30.20 in - Calm Calm - N/A   Unknown
3:54 AM 37.9 °F 31.5 °F 28.0 °F 68% 30.17 in - WSW 9.2 mph - N/A   Unknown
4:54 AM 35.1 °F 31.0 °F 30.0 °F 82% 30.15 in - SW 4.6 mph - N/A   Unknown
6:54 AM 35.1 °F 29.3 °F 30.9 °F 85% 30.13 in - SW 6.9 mph - N/A   Unknown
7:54 AM 35.1 °F 30.1 °F 30.9 °F 85% 30.13 in - SW 5.8 mph - N/A   Unknown
8:54 AM 37.0 °F 32.4 °F 33.1 °F 86% 30.12 in - SW 5.8 mph - N/A   Unknown
10:54 AM 39.9 °F 35.1 °F 36.0 °F 86% 30.08 in - WSW 6.9 mph - N/A   Unknown
11:54 AM 42.1 °F 36.6 °F 35.1 °F 76% 30.03 in - SW 9.2 mph 16.1 mph N/A   Unknown
12:54 PM 42.1 °F 36.6 °F 34.0 °F 73% 30.01 in - West 9.2 mph - N/A   Unknown
1:54 PM 43.0 °F 38.2 °F 33.1 °F 68% 30.00 in - West 8.1 mph - N/A   Unknown
3:54 PM 41.0 °F - 34.0 °F 76% 29.98 in - Calm Calm - N/A   Unknown
5:54 PM 39.0 °F - 32.0 °F 76% 30.00 in - Calm Calm - N/A   Unknown
6:54 PM 32.0 °F - 27.0 °F 82% 30.01 in - Calm Calm - N/A   Unknown
7:54 PM 37.0 °F 34.5 °F 32.0 °F 82% 30.00 in - WSW 3.5 mph - N/A   Unknown
8:54 PM 37.0 °F 33.3 °F 32.0 °F 82% 30.00 in - SW 4.6 mph - N/A   Unknown
9:54 PM 39.0 °F 34.8 °F 32.0 °F 76% 30.01 in - WSW 5.8 mph - N/A   Unknown
10:54 PM 39.0 °F 36.8 °F 30.9 °F 73% 30.01 in - WSW 3.5 mph - N/A   Unknown
11:54 PM 41.0 °F 35.8 °F 30.9 °F 67% 30.01 in - West 8.1 mph - N/A   Unknown